Terug naar catalogus

THOR ABLESTAR R/B

ActiefLEO
NORAD 447·ROCKET BODY·🇺🇸 United States

Gelanceerd Oct 31, 1962 vanaf Cape Canaveral Space Force Station

Loading…

Volgende Passages (komende 24 uur)

TLE

VersSource: Space-Track

Epoch: Sep 14, 2026, 05:48 UTC

1 00447U 62060B   26257.24209409 -.00000104  00000-0  43871-4 0  9994
2 00447  50.1287 196.4092 0065796  85.0401  81.9041 13.39177150124009

Volg THOR ABLESTAR R/B in realtime met AllMySat

Download on the App Store